Location: Anuling
(14.1239°N, 120.8922°E)
Time: 05:07:30
(UTC+00:00)

Cosmos 1933 Rocket - Pass Details

Date: 14 January 2026
Orbit: 600 x 623 km, 82.5° (Epoch: 10 February)

Event Time Altitude Azimuth Distance (km) Brightness Sun altitude
Rises 10:21:20 0° 9° (N) 2,865 6.7 -8.7°
Reaches altitude 10° 10:23:42 10° 18° (NNE) 1,957 5.8 -9.2°
Maximum altitude 10:27:40 35° 84° (E) 986 4.1 -10.1°
Drops below altitude 10° 10:31:35 10° 150° (SSE) 1,942 6.0 -11.0°
Sets 10:33:56 0° 159° (SSE) 2,841 7.0 -11.6°
